Glendive, MT

2:11 AM MDT on July 23, 2017 (GMT -0600)
Dawson Community

Weather History for KGDV - July, 2012

Change the Weather History Date:

Monday, July 23, 2012

  Actual Average Record
Temperature  
Mean Temperature 80 °F -  
Max Temperature 91 °F 84 °F 107 °F (2007)
Min Temperature 69 °F 57 °F 50 °F (2004)
Cooling Degree Days 15    
Growing Degree Days 30 (Base 50)    
Moisture  
Dew Point 57 °F    
Average Humidity 49    
Maximum Humidity 69    
Minimum Humidity 29    
Precipitation  
Precipitation 0.02 in - - ()
Sea Level Pressure  
Sea Level Pressure 29.99 in    
Wind  
Wind Speed 12 mph (East)    
Max Wind Speed 20 mph    
Max Gust Speed 24 mph    
Visibility 10 miles    
Events Thunderstorm    
Averages and records for this station are not official NWS values.
T = Trace of Precipitation, MM = Missing Value Source: NWS Daily Summary

Daily Weather History Graph

Daily Weather History Graph

Search for Another Location

Airport or City:

Trip Planner

Search our weather history database for the weather conditions in past years. The results will help you decide how hot, cold, wet, or windy it might be!

Date:

Astronomy

Jul. 23, 2012 Rise Set
Actual Time 5:28 AM MDT 8:42 PM MDT
Civil Twilight 4:51 AM MDT 9:19 PM MDT
Nautical Twilight 4:02 AM MDT 10:07 PM MDT
Astronomical Twilight 3:01 AM MDT 11:07 PM MDT
Moon 10:46 AM MDT 10:31 PM MDT
Length of Visible Light 16h 28m
Length of Day
15h 14m
Waxing Crescent, 22% of the Moon is Illuminated
Jul 23
Waxing Crescent
Jul 26
First Quarter
Aug 1
Full
Aug 9
Last Quarter
Aug 17
New

Hourly Weather History & Observations

Time (MDT) Temp. Heat Index Dew Point Humidity Pressure Visibility Wind Dir Wind Speed Gust Speed Precip Events Conditions
12:15 AM 73.4 °F - 53.6 °F 50% 30.05 in 10.0 mi NNE 10.4 mph - N/A   Clear
12:35 AM 73.4 °F - 53.6 °F 50% 30.04 in 10.0 mi NE 11.5 mph - N/A   Clear
12:55 AM 73.4 °F - 53.6 °F 50% 30.04 in 10.0 mi NE 8.1 mph - N/A   Clear
1:15 AM 73.4 °F - 55.4 °F 53% 30.05 in 10.0 mi ENE 8.1 mph - N/A   Clear
1:35 AM 73.4 °F - 55.4 °F 53% 30.05 in 10.0 mi NE 11.5 mph - N/A   Clear
1:55 AM 71.6 °F - 55.4 °F 57% 30.05 in 10.0 mi NE 11.5 mph - N/A   Clear
2:15 AM 71.6 °F - 55.4 °F 57% 30.03 in 10.0 mi NE 12.7 mph - N/A   Clear
2:35 AM 71.6 °F - 55.4 °F 57% 30.03 in 10.0 mi NE 13.8 mph - N/A   Clear
2:55 AM 71.6 °F - 55.4 °F 57% 30.03 in 10.0 mi NE 13.8 mph - N/A   Clear
3:15 AM 71.6 °F - 55.4 °F 57% 30.03 in 10.0 mi NE 15.0 mph - N/A   Clear
3:35 AM 69.8 °F - 55.4 °F 60% 30.02 in 10.0 mi NE 15.0 mph - N/A   Clear
3:55 AM 69.8 °F - 55.4 °F 60% 30.03 in 10.0 mi NE 11.5 mph - N/A   Clear
4:15 AM 69.8 °F - 55.4 °F 60% 30.04 in 10.0 mi NE 10.4 mph - N/A   Clear
4:35 AM 69.8 °F - 55.4 °F 60% 30.03 in 10.0 mi NE 12.7 mph - N/A   Clear
4:55 AM 69.8 °F - 55.4 °F 60% 30.03 in 10.0 mi ENE 13.8 mph - N/A   Clear
5:15 AM 69.8 °F - 55.4 °F 60% 30.03 in 10.0 mi NE 13.8 mph - N/A   Clear
5:35 AM 69.8 °F - 55.4 °F 60% 30.03 in 10.0 mi NE 13.8 mph - N/A   Clear
5:55 AM 69.8 °F - 57.2 °F 64% 30.04 in 10.0 mi NE 13.8 mph - N/A   Clear
6:15 AM 69.8 °F - 57.2 °F 64% 30.04 in 10.0 mi ENE 13.8 mph - N/A   Clear
6:35 AM 69.8 °F - 57.2 °F 64% 30.05 in 10.0 mi ENE 15.0 mph - N/A   Clear
6:55 AM 69.8 °F - 57.2 °F 64% 30.04 in 10.0 mi NE 12.7 mph - N/A   Clear
7:15 AM 69.8 °F - 57.2 °F 64% 30.05 in 10.0 mi ENE 10.4 mph - N/A   Clear
7:35 AM 69.8 °F - 57.2 °F 64% 30.05 in 10.0 mi ENE 10.4 mph - N/A   Clear
7:55 AM 69.8 °F - 59.0 °F 68% 30.05 in 10.0 mi ENE 10.4 mph - N/A   Clear
8:15 AM 71.6 °F - 59.0 °F 64% 30.05 in 10.0 mi East 9.2 mph - N/A   Clear
8:35 AM 71.6 °F - 57.2 °F 60% 30.06 in 10.0 mi ESE 12.7 mph - N/A   Clear
8:55 AM 71.6 °F - 57.2 °F 60% 30.06 in 10.0 mi ESE 10.4 mph - N/A   Scattered Clouds
9:15 AM 71.6 °F - 57.2 °F 60% 30.05 in 10.0 mi East 8.1 mph - N/A   Mostly Cloudy
9:35 AM 73.4 °F - 57.2 °F 57% 30.04 in 10.0 mi East 10.4 mph - N/A   Mostly Cloudy
9:55 AM 73.4 °F - 57.2 °F 57% 30.04 in 10.0 mi ESE 12.7 mph - N/A   Scattered Clouds
10:35 AM 75.2 °F - 57.2 °F 53% 30.03 in 10.0 mi East 10.4 mph - N/A   Scattered Clouds
10:55 AM 75.2 °F - 57.2 °F 53% 30.03 in 10.0 mi East 5.8 mph - N/A   Partly Cloudy
11:15 AM 78.8 °F - 57.2 °F 47% 30.03 in 10.0 mi East 8.1 mph - N/A   Partly Cloudy
11:35 AM 80.6 °F 80.8 °F 57.2 °F 45% 30.02 in 10.0 mi East 12.7 mph - N/A   Partly Cloudy
12:15 PM 84.2 °F 83.5 °F 57.2 °F 40% 30.00 in 10.0 mi East 11.5 mph 16.1 mph N/A   Clear
12:35 PM 84.2 °F 83.5 °F 57.2 °F 40% 29.99 in 10.0 mi ESE 12.7 mph 20.7 mph N/A   Clear
12:55 PM 84.2 °F 83.8 °F 59.0 °F 42% 29.99 in 10.0 mi ESE 13.8 mph - N/A   Clear
1:15 PM 84.2 °F 83.5 °F 57.2 °F 40% 29.98 in 10.0 mi East 10.4 mph - N/A   Clear
1:35 PM 86.0 °F 84.9 °F 57.2 °F 37% 29.98 in 10.0 mi East 13.8 mph 17.3 mph N/A   Clear
1:55 PM 87.8 °F 87.1 °F 59.0 °F 38% 29.98 in 10.0 mi East 15.0 mph - N/A   Clear
2:15 PM 87.8 °F 87.1 °F 59.0 °F 38% 29.97 in 10.0 mi ESE 12.7 mph - N/A   Clear
2:35 PM 87.8 °F 87.6 °F 60.8 °F 40% 29.97 in 10.0 mi East 11.5 mph 18.4 mph N/A   Clear
2:55 PM 89.6 °F 89.5 °F 60.8 °F 38% 29.96 in 10.0 mi ENE 8.1 mph 17.3 mph N/A   Clear
3:35 PM 91.4 °F 89.9 °F 57.2 °F 31% 29.95 in 10.0 mi ESE 15.0 mph 19.6 mph N/A   Clear
3:55 PM 89.6 °F 88.1 °F 57.2 °F 33% 29.95 in 10.0 mi East 12.7 mph - N/A   Clear
4:15 PM 91.4 °F 89.4 °F 55.4 °F 29% 29.94 in 10.0 mi ESE 12.7 mph 19.6 mph N/A   Clear
4:35 PM 91.4 °F 89.4 °F 55.4 °F 29% 29.93 in 10.0 mi ESE 15.0 mph - N/A   Clear
5:15 PM 91.4 °F 89.9 °F 57.2 °F 31% 29.92 in 10.0 mi ESE 13.8 mph - N/A   Clear
5:35 PM 91.4 °F 89.9 °F 57.2 °F 31% 29.91 in 10.0 mi ESE 19.6 mph 24.2 mph N/A   Clear
5:55 PM 89.6 °F 88.1 °F 57.2 °F 33% 29.90 in 10.0 mi ESE 19.6 mph - N/A   Clear
6:15 PM 89.6 °F 88.1 °F 57.2 °F 33% 29.90 in 10.0 mi ESE 16.1 mph 24.2 mph N/A   Clear
6:35 PM 89.6 °F 88.9 °F 59.0 °F 36% 29.90 in 10.0 mi ESE 16.1 mph - N/A   Clear
6:55 PM 87.8 °F 87.1 °F 59.0 °F 38% 29.89 in 10.0 mi ESE 16.1 mph - N/A   Clear
7:15 PM 89.6 °F 88.9 °F 59.0 °F 36% 29.89 in 10.0 mi ESE 15.0 mph - N/A   Clear
7:35 PM 87.8 °F 87.1 °F 59.0 °F 38% 29.89 in 10.0 mi ESE 18.4 mph 21.9 mph N/A   Clear
7:55 PM 87.8 °F 87.1 °F 59.0 °F 38% 29.89 in 10.0 mi ESE 13.8 mph 19.6 mph N/A   Clear
8:15 PM 86.0 °F 84.9 °F 57.2 °F 37% 29.89 in 10.0 mi ESE 17.3 mph 21.9 mph N/A   Clear
8:35 PM 84.2 °F 83.8 °F 59.0 °F 42% 29.90 in 10.0 mi East 13.8 mph - N/A   Clear
8:55 PM 84.2 °F 83.8 °F 59.0 °F 42% 29.91 in 10.0 mi ESE 10.4 mph - N/A   Clear
9:15 PM 84.2 °F 83.8 °F 59.0 °F 42% 29.92 in 10.0 mi East 12.7 mph - N/A   Clear
9:35 PM 80.6 °F 81.1 °F 59.0 °F 48% 29.92 in 10.0 mi ENE 9.2 mph - N/A   Clear
9:55 PM 80.6 °F 81.1 °F 59.0 °F 48% 29.91 in 10.0 mi East 11.5 mph - N/A   Clear
10:15 PM 80.6 °F 81.1 °F 59.0 °F 48% 29.92 in 10.0 mi East 11.5 mph - N/A   Clear
10:35 PM 80.6 °F 81.5 °F 60.8 °F 51% 29.91 in 10.0 mi East 10.4 mph - N/A   Clear
10:55 PM 78.8 °F - 60.8 °F 54% 29.91 in 10.0 mi East 5.8 mph - N/A Thunderstorm Partly Cloudy
11:15 PM 78.8 °F - 60.8 °F 54% 29.93 in 10.0 mi Calm Calm - N/A Thunderstorm Mostly Cloudy
11:35 PM 75.2 °F - 64.4 °F 69% 29.95 in 10.0 mi South 13.8 mph - 0.02 in Thunderstorm Thunderstorm
11:55 PM - - - N/A% 29.98 in - SSW 8.1 mph - N/A Thunderstorm Thunderstorm